Regional Weather Roundup
Issued by NWS

Home | Current Version | Previous Version | Graphics & Text | Print | Product List | Glossary On
Versions: 1 2 3 4 5 6 7 8 9 10 11 12 13 14 15 16 17 18 19 20 21 22 23 24 25 26 27 28 29 30 31 32 33 34 35 36 37 38 39 40 41 42 43 44 45 46 47 48 49 50
000
ASUS43 KLMK 260810
RWRKY
KENTUCKY REGIONAL WEATHER ROUNDUP
NATIONAL WEATHER SERVICE LOUISVILLE KY
400 AM EDT MON JUN 26 2017

NOTE "FAIR" INDICATES FEW OR NO CLOUDS BELOW 12,000 FEET
WITH NO SIGNIFICANT WEATHER AND/OR OBSTRUCTIONS TO VISIBILITY.

KYZ001>023-026-027-061>063-070>075-260900-
WESTERN AND SOUTH CENTRAL KENTUCKY

CITY           SKY/WX    TMP DP  RH WIND       PRES   REMARKS
PADUCAH        CLOUDY    67  55  65 N3        30.17S
HENDERSON      MOCLDY    55  53  93 CALM      30.18S
OWENSBORO      CLOUDY    60  54  80 CALM      30.17S
HOPKINSVILLE   CLOUDY    65  57  74 NW5       30.16S
BOWLING GREEN  CLEAR     62  59  90 CALM      30.15F
GLASGOW        CLOUDY    57  57 100 CALM      30.16S
$$

KYZ024-025-028>034-038-045-046-053-260900-
NORTH CENTRAL KENTUCKY

CITY           SKY/WX    TMP DP  RH WIND       PRES   REMARKS
LOUISVILLE/SDF PTCLDY    63  50  62 W3        30.15S
LOUISVILLE/LOU CLEAR     61  51  70 CALM      30.15S
FORT KNOX      CLEAR     54  51  91 W5        30.14F
$$

KYZ035>037-039>044-047>052-055>060-089>105-260900-
NORTHEAST KENTUCKY

CITY           SKY/WX    TMP DP  RH WIND       PRES   REMARKS
LEXINGTON      PTCLDY    58  49  72 W3        30.14F
COVINGTON      PTCLDY    59  50  72 NW7       30.13S
FRANKFORT      CLEAR     56  50  80 CALM      30.13S
$$

KYZ054-064>069-076>088-106>120-260900-
SOUTHEAST KENTUCKY

CITY           SKY/WX    TMP DP  RH WIND       PRES   REMARKS
JACKSON        CLEAR     60  51  72 CALM      30.15F
LONDON         CLEAR     57  52  83 CALM      30.16F
SOMERSET       PTCLDY    54  54 100 CALM      30.17S
MIDDLESBORO    CLEAR     53  53 100 CALM      30.20S
MONTICELLO     SUNNY     54  53  97 W10       30.18S
$$





USA.gov is the U.S. government's official web portal to all federal, state and local government web resources and services.